Retour au catalogue

FENGYUN 1C DEB

ActifPO
NORAD 31537·DEBRIS·🇨🇳 China

Lancé May 10, 1999 depuis Taiyuan Satellite Launch Center

Loading…

Prochains Passages (prochaines 24 heures)

TLE

VieillissantSource: Space-Track

Époque: Sep 8, 2026, 06:41 UTC

1 31537U 99025BYC 26251.27863929  .00006370  00000-0  15203-2 0  9995
2 31537  99.3144  65.5859 0328664 275.2620  81.1141 14.26037805971179

Suivez FENGYUN 1C DEB en temps réel avec AllMySat

Download on the App Store